LiveATC.Net - Listen to live air traffic control over the Internet!


ICAO: ULLI  IATA: LED   Airport: Pulkovo Airport
City: Saint Petersburg
Country: Russia   Continent: Europe
ULLI METAR Weather: ULLI 090600Z 26005MPS 9999 OVC006 01/M00 Q0994 R88/620345 TEMPO 1000 -SHSNRA BR BKN003 BKN012CB RMK OBST OBSC
ULLI Flight Activity (FlightAware)
ULLI Gnd/Twr/App
Feed Status: UP   Listeners: 3
Listen right in your browser - requires Flash (in browser, requires Flash)
Click here to listen with your own player (launches your MP3 player)
ULLI Gnd/Twr/App Audio Archives
FacilityFrequency
Circle120.300
St. Petersburg Approach119.300
St. Petersburg Approach125.900
St. Petersburg Control135.600
St. Petersburg Tower118.100
St. Petersburg Tower118.700
St. Petersburg Transit131.800


NOTICE

Unauthorized use prohibited. See LiveATC.net Terms of Service


Find LiveATC Audio Streams


Airport/ARTCC Code

Frequency
(e.g., 124.400, 128.75)
Site-wide search

Browse LiveATC Feeds
LiveATC Coverage Map
Top 50 LiveATC Feeds
Bad Weather Areas

LiveATC FAQ
Offer a LiveATC Feed
Contact LiveATC.net
Press Inquiries

LiveATC on iPhone
LiveATC on Android

Windows Phone
Windows 8/10

LiveATC Mobile
(Mobile browser)

ATC Audio Archives
Interesting Recordings

LiveATC Forums


Home Page
About LiveATC.net
Make a Donation
LiveATC Store

Terms of Use
Privacy Policy

Canadian Air Freqs

AIRMETs/SIGMETs

FAA Airport Status
Nat'l Airspace Status
Arrival Demand Charts


Server Software By:
Icecast.org
Liquidsoap